Location: UMBC
(39.2555°N, 76.7093°W)
Time: 19:33:45
(UTC+02:00)

Amateur Radio Satellites - All Passes

Search period start: 30 June 2016 19:03
Search period end: 01 July 2016 19:03
Location: UMBC, 39.2555°N, 76.7093°W

Satellite Date Start Highest point End Downlink Frequencies (MHz)
Time Altitude Azimuth
NANOSAT C BR1 30 Jun 19:05:19 19:07:37 14° 268° (W) 19:09:55 145.865
Gurwin Techsat 1B 30 Jun 19:05:31 19:08:48 17° 62° (ENE) 19:12:04 435.225
QB50P1 30 Jun 19:10:09 19:11:52 12° 269° (W) 19:13:35 145.935-145.965
POPSAT HIP 1 30 Jun 19:13:59 19:15:19 11° 269° (W) 19:16:39 437.405
PCSat 30 Jun 19:15:01 19:17:20 13° 257° (WSW) 19:19:38 145.827
ISS 30 Jun 19:18:15 19:20:12 15° 18° (NNE) 19:22:09 145.825
Cosmos 2504 30 Jun 19:21:24 19:28:12 30° 83° (E) 19:35:22 435.465 / 435.565
SPROUT 30 Jun 19:25:25 19:29:43 79° 104° (ESE) 19:34:00 437.525
YUBILEINY 30 Jun 19:27:46 19:36:29 81° 277° (W) 19:45:19 435.215
UKube-1 30 Jun 19:27:51 19:32:09 71° 285° (WNW) 19:36:25 .
AIST 2 30 Jun 19:32:25 19:36:26 46° 55° (NE) 19:40:26 435.215
AISAT 30 Jun 19:39:09 19:43:01 31° 290° (WNW) 19:46:54 437.250
50 SAT 30 Jun 19:40:29 19:43:18 21° 291° (WNW) 19:46:05 437.505
ESTCUBE 1 30 Jun 19:44:00 19:47:12 20° 294° (WNW) 19:50:24 437.505/2401.250
Cosmos 2491 30 Jun 19:46:38 19:53:41 29° 277° (W) 20:00:45 435.465 / 435.565
DX 1 30 Jun 19:52:00 19:55:48 30° 290° (WNW) 19:59:36 434.975-435.025
Oscar 19 30 Jun 20:09:40 20:14:42 54° 259° (W) 20:19:45 437.125/150
CUBEBUG 1 30 Jun 20:23:14 20:24:20 11° 297° (WNW) 20:25:23 437.445
SWISSCUBE 30 Jun 20:28:21 20:31:45 19° 94° (E) 20:35:08 437.505
ITAMSAT 1 30 Jun 20:36:48 20:41:40 41° 70° (ENE) 20:46:34 435.822/435.867
AO-7 30 Jun 20:38:01 20:45:05 32° 58° (ENE) 20:52:11 29.400- 29.500
TISAT 1 30 Jun 20:38:15 20:42:24 63° 286° (WNW) 20:46:34 437.305
Gurwin Techsat 1B 30 Jun 20:42:56 20:48:11 63° 259° (WSW) 20:53:29 435.225
JAS-2 30 Jun 20:45:49 20:50:13 16° 270° (W) 20:54:27 435.910
BEESAT 30 Jun 20:52:44 20:56:58 31° 97° (E) 21:01:11 436.000
ISS 30 Jun 20:53:53 20:57:09 66° 36° (NE) 21:00:23 145.825
ITUPSAT 1 30 Jun 20:55:09 20:59:26 32° 97° (E) 21:03:42 437.325
RS-15 30 Jun 20:59:23 21:08:56 28° 332° (NNW) 21:18:52 29.354- 29.394
SO-50 30 Jun 21:06:20 21:10:42 33° 113° (ESE) 21:15:02 436.795
AIST 2 30 Jun 21:12:04 21:14:32 15° 250° (WSW) 21:16:58 435.215
Cosmos 2504 30 Jun 21:13:04 21:21:01 55° 283° (WNW) 21:29:32 435.465 / 435.565
YUBILEINY 30 Jun 21:29:57 21:34:46 16° 299° (WNW) 21:39:39 435.215
SWISSCUBE 30 Jun 22:05:12 22:09:42 42° 289° (WNW) 22:14:11 437.505
ITAMSAT 1 30 Jun 22:17:12 22:21:16 23° 266° (W) 22:25:22 435.822/435.867
AIST 1 30 Jun 22:26:03 22:29:09 20° 88° (E) 22:32:15
AO-7 30 Jun 22:29:12 22:37:23 59° 257° (WSW) 22:45:37 29.400- 29.500
BEESAT 30 Jun 22:30:38 22:34:38 27° 292° (WNW) 22:38:36 436.000
JUGNU 30 Jun 22:31:07 22:32:40 11° 180° (S) 22:34:15 437.505
ISS 30 Jun 22:31:53 22:33:11 12° 232° (SW) 22:34:28 145.825
ITUPSAT 1 30 Jun 22:33:10 22:37:07 26° 293° (WNW) 22:41:04 437.325
KKS-1 30 Jun 22:43:52 22:48:14 54° 100° (E) 22:52:36 437.445
SO-50 30 Jun 22:46:48 22:51:09 31° 310° (NW) 22:55:30 436.795
MOZHAYETS 4 30 Jun 22:49:48 22:54:24 59° 100° (E) 22:58:57
Cubesat XI-IV 30 Jun 23:02:49 23:04:35 12° 59° (ENE) 23:06:21 437.490
HORYU 2 30 Jun 23:05:56 23:10:20 76° 76° (ENE) 23:14:47 437.375
STARS 30 Jun 23:10:03 23:14:22 51° 100° (E) 23:18:40 437.465
NOAA 18 30 Jun 23:13:09 23:16:37 17° 61° (ENE) 23:20:07 137.9125
RS-15 30 Jun 23:19:07 23:27:26 20° 8° (N) 23:35:51 29.354- 29.394
GONETS M04 30 Jun 23:31:51 23:38:38 26° 82° (E) 23:45:23
CUTE-I 30 Jun 23:33:42 23:37:49 23° 65° (ENE) 23:41:57 437.470
SRMSAT 30 Jun 23:50:51 23:51:31 10° 175° (S) 23:52:10 437.500
CUSAT 1 30 Jun 23:51:22 23:52:33 11° 65° (ENE) 23:53:40 437.405
Cosmos 2499 30 Jun 23:51:57 23:58:09 23° 80° (E) 00:04:33 435.465 / 435.565
NOAA 15 30 Jun 23:53:31 23:58:34 47° 71° (ENE) 00:03:38 137.62
AIST 1 01 Jul 00:02:41 00:06:31 30° 283° (WNW) 00:10:20
BRITE-PL 01 Jul 00:19:05 00:24:07 79° 76° (ENE) 00:28:46 437.365/2234.400
KKS-1 01 Jul 00:21:58 00:24:20 14° 296° (WNW) 00:26:42 437.445
CUBESAT XI-V 01 Jul 00:23:23 00:28:00 68° 101° (E) 00:32:34 437.345
MOZHAYETS 4 01 Jul 00:28:39 00:31:02 14° 296° (WNW) 00:33:25
DANDE 01 Jul 00:33:39 00:36:52 19° 65° (ENE) 00:39:33 436.750
Cubesat XI-IV 01 Jul 00:38:28 00:43:49 88° 77° (ENE) 00:49:13 437.490
GOMX 1 01 Jul 00:41:38 00:46:08 58° 75° (ENE) 00:50:23 467.674
LilacSat-2 01 Jul 00:43:29 00:47:15 80° 258° (WSW) 00:51:04 437.200
STARS 01 Jul 00:47:52 00:50:17 15° 296° (WNW) 00:52:42 437.465
NOAA 18 01 Jul 00:51:18 00:56:43 64° 258° (WSW) 01:02:11 137.9125
STRAND 1 01 Jul 01:03:32 01:05:07 11° 89° (E) 01:06:41 437.568
CUTE 1.7 + AOD 2 01 Jul 01:09:56 01:11:45 12° 64° (ENE) 01:13:33 437.475
CUTE-I 01 Jul 01:12:27 01:17:32 45° 261° (W) 01:22:41 437.470
HO-68 01 Jul 01:20:10 01:26:28 35° 63° (ENE) 01:32:47 435.675
GONETS M04 01 Jul 01:26:08 01:34:44 63° 281° (W) 01:43:21
DOVE 4 01 Jul 01:30:28 01:34:46 89° 90° (E) 01:38:58 437.250
CUSAT 1 01 Jul 01:32:17 01:34:45 20° 271° (W) 01:36:55 437.405
RS-15 01 Jul 01:33:22 01:44:47 41° 41° (NE) 01:56:08 29.354- 29.394
NOAA 15 01 Jul 01:34:43 01:38:33 20° 266° (W) 01:42:25 137.62
SRMSAT 01 Jul 01:39:01 01:39:44 10° 185° (S) 01:40:26 437.500
Cosmos 2499 01 Jul 01:42:00 01:50:18 72° 279° (W) 01:59:09 435.465 / 435.565
AAUSAT CUBESAT 2 01 Jul 01:42:48 01:44:02 11° 64° (ENE) 01:45:17 437.432
CUBEBUG 2 01 Jul 01:53:15 01:55:01 12° 63° (ENE) 01:56:47 437.445
CUBESAT XI-V 01 Jul 02:02:58 02:04:46 12° 298° (WNW) 02:06:35 437.345
CINEMA 3 01 Jul 02:09:12 02:13:17 64° 76° (ENE) 02:17:26 145.822/145.860
Oscar 11 01 Jul 02:15:20 02:16:26 11° 63° (ENE) 02:17:33 145.826/435.025
DANDE 01 Jul 02:16:09 02:19:45 24° 274° (W) 02:22:40 436.750
COMPASS 1 01 Jul 02:16:20 02:20:07 33° 71° (ENE) 02:23:56 437.405
GOMX 1 01 Jul 02:22:55 02:24:30 12° 268° (W) 02:26:04 467.674
CANX-2 01 Jul 02:23:13 02:27:30 85° 256° (WSW) 02:31:50 2200.000
Cubesat XI-IV 01 Jul 02:23:55 02:24:32 10° 271° (W) 02:25:10 437.490
FUNcube-1 01 Jul 02:25:39 02:27:18 12° 63° (ENE) 02:28:57 145.935
UWE-3 01 Jul 02:33:49 02:37:10 24° 68° (ENE) 02:40:37 435.000/436.395/437.385
AO-85 01 Jul 02:37:05 02:41:52 32° 113° (ESE) 02:46:34 145.980
STRAND 1 01 Jul 02:39:41 02:44:50 78° 286° (WNW) 02:49:58 437.568
AUBIESAT-1 01 Jul 02:41:33 02:44:23 27° 66° (ENE) 02:47:15 437.475
SEEDS 01 Jul 02:42:24 02:46:39 83° 258° (WSW) 02:50:57 437.485
CUTE 1.7 + AOD 2 01 Jul 02:42:51 02:47:04 58° 260° (W) 02:51:19 437.475
HO-68 01 Jul 03:07:13 03:13:58 44° 261° (W) 03:20:48 435.675
DELFI C3 01 Jul 03:08:10 03:10:51 17° 67° (ENE) 03:13:33 145.870
AAUSAT CUBESAT 2 01 Jul 03:14:49 03:18:57 62° 259° (W) 03:23:09 437.432
M-CUBED/EXP-1 PRIME 01 Jul 03:22:38 03:25:50 56° 254° (WSW) 03:29:04 437.505
CUBEBUG 2 01 Jul 03:27:02 03:31:06 55° 260° (W) 03:35:19 437.445
GONETS M04 01 Jul 03:31:28 03:33:32 11° 303° (WNW) 03:35:37
Cosmos 2499 01 Jul 03:41:09 03:45:13 14° 301° (WNW) 03:49:23 435.465 / 435.565
ZACube-1 01 Jul 03:42:32 03:46:44 86° 257° (WSW) 03:51:05 437.345
RS-15 01 Jul 03:45:59 03:58:12 70° 245° (WSW) 04:10:14 29.354- 29.394
Oscar 11 01 Jul 03:47:39 03:51:58 69° 259° (W) 03:56:19 145.826/435.025
COMPASS 1 01 Jul 03:52:45 03:55:45 19° 267° (W) 03:58:45 437.405
FUNcube-1 01 Jul 03:58:51 04:02:59 59° 259° (W) 04:07:15 145.935
PRISM 01 Jul 03:59:12 04:03:15 63° 286° (WNW) 04:07:15 437.425
UWE-3 01 Jul 04:09:58 04:13:31 27° 265° (W) 04:17:10 435.000/436.395/437.385
AUBIESAT-1 01 Jul 04:17:14 04:18:58 14° 261° (W) 04:20:43 437.475
AO-85 01 Jul 04:17:18 04:22:18 37° 308° (NW) 04:27:09 145.980
HUMSAT D 01 Jul 04:34:18 04:38:28 82° 77° (ENE) 04:42:44 437.325/437.525
ANTELSAT 01 Jul 04:36:03 04:39:41 22° 94° (E) 04:43:18 437.575/2403.000
DELFI C3 01 Jul 04:41:45 04:45:26 34° 263° (W) 04:49:09 145.870
Cosmos 2491 01 Jul 04:59:40 05:01:46 11° 74° (ENE) 05:03:52 435.465 / 435.565
AISAT 01 Jul 05:00:02 05:03:01 18° 66° (ENE) 05:06:01 437.250
ESTCUBE 1 01 Jul 05:04:58 05:08:57 31° 70° (ENE) 05:12:58 437.505/2401.250
DX 1 01 Jul 05:11:18 05:14:12 18° 66° (ENE) 05:17:07 434.975-435.025
TIGRISAT 01 Jul 05:26:07 05:30:47 71° 101° (E) 05:35:29 435.000
UNISAT 6 01 Jul 05:32:06 05:36:48 87° 107° (ESE) 05:41:30 437.425
DUCHIFAT 1 01 Jul 05:34:21 05:35:56 12° 91° (E) 05:37:29 145.980
QB50P2 01 Jul 05:35:08 05:37:35 15° 92° (E) 05:40:02 145.880/145.840
POLYITAN 1 01 Jul 05:37:41 05:40:14 15° 93° (E) 05:42:46 437.675
SO-50 01 Jul 05:38:55 05:42:42 24° 47° (NE) 05:46:22 436.795
CUBEBUG 1 01 Jul 05:39:01 05:43:12 48° 73° (ENE) 05:47:23 437.445
YUBILEINY 01 Jul 05:39:23 05:47:53 49° 76° (ENE) 05:56:21 435.215
VELOX 1 01 Jul 05:53:34 05:57:56 66° 75° (ENE) 06:02:18 145.980
RS-15 01 Jul 06:02:41 06:08:17 14° 265° (W) 06:13:52 29.354- 29.394
ANTELSAT 01 Jul 06:12:10 06:16:27 36° 289° (WNW) 06:20:43 437.575/2403.000
50 SAT 01 Jul 06:16:11 06:19:50 54° 260° (W) 06:23:30 437.505
SPROUT 01 Jul 06:17:44 06:21:50 50° 74° (ENE) 06:25:58 437.525
BUGSAT 1 01 Jul 06:18:43 06:21:25 17° 94° (E) 06:24:07 437.445
UKube-1 01 Jul 06:20:55 06:25:13 84° 79° (E) 06:29:34 .
PCSat 01 Jul 06:31:15 06:32:21 11° 101° (ESE) 06:33:28 145.827
AISAT 01 Jul 06:35:04 06:39:11 39° 261° (W) 06:43:20 437.250
ESTCUBE 1 01 Jul 06:42:09 06:45:46 23° 265° (W) 06:49:23 437.505/2401.250
DX 1 01 Jul 06:46:00 06:50:05 39° 261° (W) 06:54:11 434.975-435.025
Cosmos 2491 01 Jul 06:48:11 06:56:52 70° 93° (E) 07:05:31 435.465 / 435.565
NANOSAT C BR1 01 Jul 06:48:21 06:52:38 86° 281° (W) 06:56:53 145.865
QB50P1 01 Jul 06:52:53 06:57:09 72° 284° (WNW) 07:01:23 145.935-145.965
POPSAT HIP 1 01 Jul 06:56:22 07:00:37 67° 285° (WNW) 07:04:51 437.405
TIGRISAT 01 Jul 07:05:01 07:06:52 12° 297° (WNW) 07:08:44 435.000
Cosmos 2504 01 Jul 07:06:48 07:15:31 56° 78° (ENE) 07:23:45 435.465 / 435.565
DUCHIFAT 1 01 Jul 07:07:46 07:11:55 54° 286° (WNW) 07:16:03 145.980
QB50P2 01 Jul 07:09:32 07:13:36 43° 287° (WNW) 07:17:38 145.880/145.840
POLYITAN 1 01 Jul 07:12:10 07:16:14 42° 287° (WNW) 07:20:16 437.675
CUBEBUG 1 01 Jul 07:17:30 07:19:44 14° 268° (W) 07:21:59 437.445
SO-50 01 Jul 07:18:59 07:23:19 41° 245° (WSW) 07:27:32 436.795
TISAT 1 01 Jul 07:28:27 07:32:36 81° 76° (ENE) 07:36:48 437.305
O/OREOS (USA 219) 01 Jul 07:33:07 07:35:33 14° 99° (E) 07:37:58 437.305
SWISSCUBE 01 Jul 07:33:57 07:37:28 21° 65° (ENE) 07:41:00 437.505
VELOX 1 01 Jul 07:34:13 07:34:48 10° 270° (W) 07:35:24 145.980
YUBILEINY 01 Jul 07:36:39 07:44:21 35° 275° (W) 07:52:04 435.215
BEESAT 3 01 Jul 07:41:50 07:45:13 28° 114° (ESE) 07:48:37 437.485
BUGSAT 1 01 Jul 07:53:07 07:56:53 36° 288° (WNW) 08:00:41 437.445
JAS-2 01 Jul 07:53:49 07:59:22 85° 103° (ESE) 08:04:34 435.910
SPROUT 01 Jul 07:56:11 07:58:04 13° 269° (W) 07:59:57 437.525
BEESAT 01 Jul 07:58:04 08:02:18 32° 69° (ENE) 08:06:32 436.000
ITUPSAT 1 01 Jul 08:00:48 08:05:06 33° 69° (ENE) 08:09:25 437.325
PCSat 01 Jul 08:09:29 08:14:53 90° 242° (WSW) 08:20:22 145.827
Oscar 19 01 Jul 08:22:07 08:27:09 57° 100° (E) 08:32:12 437.125/150
BEESAT 2 01 Jul 08:24:28 08:28:15 46° 116° (ESE) 08:32:05 435.950
Cosmos 2491 01 Jul 08:47:37 08:54:26 25° 293° (WNW) 09:01:16 435.465 / 435.565
ITAMSAT 1 01 Jul 08:51:57 08:55:02 16° 92° (E) 08:58:05 435.822/435.867
Gurwin Techsat 1B 01 Jul 09:00:09 09:05:24 57° 101° (E) 09:10:36 435.225
Cosmos 2504 01 Jul 09:00:59 09:08:20 31° 277° (W) 09:15:25 435.465 / 435.565
O/OREOS (USA 219) 01 Jul 09:10:08 09:14:29 48° 295° (WNW) 09:18:51 437.305
SWISSCUBE 01 Jul 09:10:27 09:14:57 41° 261° (W) 09:19:30 437.505
BEESAT 3 01 Jul 09:19:39 09:22:52 24° 310° (NW) 09:26:07 437.485
AIST 2 01 Jul 09:31:22 09:32:57 12° 108° (ESE) 09:34:31 435.215
BEESAT 01 Jul 09:36:08 09:40:04 25° 265° (W) 09:44:03 436.000
ITUPSAT 1 01 Jul 09:39:03 09:42:56 24° 265° (W) 09:46:52 437.325
KKS-1 01 Jul 09:40:47 09:44:57 43° 72° (ENE) 09:49:09 437.445
JAS-2 01 Jul 09:41:38 09:43:32 12° 303° (WNW) 09:45:24 435.910
GONETS M04 01 Jul 09:45:03 09:47:21 11° 57° (ENE) 09:49:39
MOZHAYETS 4 01 Jul 09:50:22 09:54:49 49° 73° (ENE) 09:59:18
PCSat 01 Jul 09:55:57 09:59:04 15° 317° (NW) 10:02:11 145.827
Oscar 19 01 Jul 10:02:44 10:06:00 17° 297° (WNW) 10:09:16 437.125/150
BEESAT 2 01 Jul 10:03:43 10:06:20 17° 314° (NW) 10:08:58 435.950
STARS 01 Jul 10:05:37 10:09:41 39° 71° (ENE) 10:13:45 437.465
AIST 1 01 Jul 10:10:06 10:14:17 53° 80° (E) 10:18:27
ITAMSAT 1 01 Jul 10:29:43 10:34:52 60° 287° (WNW) 10:39:59 435.822/435.867
AO-7 01 Jul 10:31:49 10:39:59 53° 102° (ESE) 10:48:03 29.400- 29.500
Gurwin Techsat 1B 01 Jul 10:41:18 10:44:52 19° 297° (WNW) 10:48:26 435.225
HORYU 2 01 Jul 10:59:11 11:01:53 16° 93° (E) 11:04:34 437.375
AIST 2 01 Jul 11:06:51 11:10:54 57° 304° (WNW) 11:15:00 435.215
AO-85 01 Jul 11:10:38 11:13:58 20° 44° (NE) 11:17:06 145.980
KKS-1 01 Jul 11:18:57 11:21:43 16° 267° (W) 11:24:28 437.445
CUBESAT XI-V 01 Jul 11:25:16 11:29:53 58° 74° (ENE) 11:34:30 437.345
MOZHAYETS 4 01 Jul 11:29:29 11:32:14 15° 268° (W) 11:34:59
Cosmos 2499 01 Jul 11:35:12 11:43:23 42° 74° (ENE) 11:51:02 435.465 / 435.565
GONETS M04 01 Jul 11:37:29 11:46:08 63° 79° (E) 11:54:48
STARS 01 Jul 11:43:20 11:46:10 17° 266° (W) 11:49:03 437.465
AIST 1 01 Jul 11:50:10 11:51:20 11° 276° (W) 11:52:29
PHONESAT 2.4 01 Jul 12:03:47 12:06:40 38° 157° (SSE) 12:09:33 2401.200-2431.200
NOAA 15 01 Jul 12:10:37 12:14:17 19° 93° (E) 12:17:55 137.62
STRAND 1 01 Jul 12:17:43 12:20:53 17° 62° (ENE) 12:24:02 437.568
LilacSat-2 01 Jul 12:19:43 12:21:17 12° 91° (E) 12:22:50 437.200
AO-7 01 Jul 12:25:04 12:32:25 36° 300° (WNW) 12:39:44 29.400- 29.500
BRITE-PL 01 Jul 12:25:23 12:28:41 22° 95° (E) 12:32:02 437.365/2234.400
HORYU 2 01 Jul 12:34:21 12:38:39 46° 288° (WNW) 12:42:57 437.375
GOMX 1 01 Jul 12:44:52 12:47:39 17° 94° (E) 12:50:31 467.674
CUSAT 1 01 Jul 12:47:39 12:54:27 36° 92° (E) 13:00:16 437.405
AO-85 01 Jul 12:50:29 12:54:43 45° 244° (WSW) 12:58:36 145.980
Cubesat XI-IV 01 Jul 12:57:01 13:02:02 38° 98° (E) 13:07:01 437.490
CUBESAT XI-V 01 Jul 13:05:20 13:07:35 13° 269° (W) 13:09:52 437.345
NOAA 18 01 Jul 13:14:18 13:19:49 60° 102° (ESE) 13:25:17 137.9125
Cosmos 2499 01 Jul 13:28:30 13:36:23 40° 274° (W) 13:43:49 435.465 / 435.565
DOVE 4 01 Jul 13:30:02 13:33:41 25° 96° (E) 13:37:28 437.250
CUTE-I 01 Jul 13:30:12 13:35:37 80° 103° (ESE) 13:40:58 437.470
ISS 01 Jul 13:32:42 13:35:41 34° 135° (SE) 13:38:41 145.825
DANDE 01 Jul 13:35:16 13:43:06 45° 92° (E) 13:50:16 436.750
GONETS M04 01 Jul 13:35:26 13:42:14 26° 278° (W) 13:49:03
PHONESAT 2.4 01 Jul 13:40:07 13:43:11 74° 353° (N) 13:46:15 2401.200-2431.200
NOAA 15 01 Jul 13:49:15 13:54:19 50° 289° (WNW) 13:59:20 137.62
LilacSat-2 01 Jul 13:52:05 13:55:48 44° 286° (WNW) 13:59:30 437.200
STRAND 1 01 Jul 13:54:27 13:59:31 61° 259° (W) 14:04:39 437.568
BRITE-PL 01 Jul 14:03:42 14:07:10 26° 290° (WNW) 14:10:40 437.365/2234.400
CINEMA 3 01 Jul 14:05:06 14:08:18 18° 93° (E) 14:11:34 145.822/145.860
CANX-2 01 Jul 14:10:21 14:13:17 18° 93° (E) 14:16:11 2200.000
GOMX 1 01 Jul 14:21:56 14:25:53 38° 287° (WNW) 14:30:00 467.674
SEEDS 01 Jul 14:28:26 14:31:16 17° 93° (E) 14:34:06 437.485
CUTE 1.7 + AOD 2 01 Jul 14:29:15 14:32:50 25° 95° (E) 14:36:21 437.475
CUSAT 1 01 Jul 14:29:19 14:36:25 41° 283° (WNW) 14:42:24 437.405
HO-68 01 Jul 14:35:43 14:42:23 39° 98° (E) 14:49:01 435.675
Cubesat XI-IV 01 Jul 14:37:27 14:41:53 27° 294° (WNW) 14:46:18 437.490
PRISM 01 Jul 14:47:05 14:51:14 77° 74° (ENE) 14:55:23 437.425
NOAA 18 01 Jul 14:56:10 14:59:58 19° 298° (WNW) 15:03:44 137.9125
AAUSAT CUBESAT 2 01 Jul 14:58:50 15:02:01 21° 94° (E) 15:05:11 437.432
DOVE 4 01 Jul 15:07:34 15:11:21 29° 289° (WNW) 15:15:18 437.250
ISS 01 Jul 15:09:18 15:12:09 27° 332° (NNW) 15:15:01 145.825
CUTE-I 01 Jul 15:12:22 15:14:56 14° 300° (WNW) 15:17:30 437.470
PHONESAT 2.4 01 Jul 15:16:49 15:19:53 81° 10° (N) 15:22:57 2401.200-2431.200
DANDE 01 Jul 15:18:10 15:25:56 41° 286° (WNW) 15:32:59 436.750
PCSat 01 Jul 15:18:28 15:19:13 10° 38° (NE) 15:19:57 145.827
CUBEBUG 2 01 Jul 15:18:31 15:22:45 33° 97° (E) 15:27:01 437.445
ZACube-1 01 Jul 15:32:25 15:35:53 21° 94° (E) 15:39:20 437.345
ANTELSAT 01 Jul 15:34:48 15:37:30 16° 65° (ENE) 15:40:15 437.575/2403.000
COMPASS 1 01 Jul 15:35:09 15:39:20 74° 101° (E) 15:43:29 437.405
Oscar 11 01 Jul 15:36:29 15:39:58 23° 95° (E) 15:43:24 145.826/435.025
CINEMA 3 01 Jul 15:41:11 15:45:34 43° 287° (WNW) 15:50:07 145.822/145.860
CANX-2 01 Jul 15:45:19 15:49:15 36° 288° (WNW) 15:53:08 2200.000
FUNcube-1 01 Jul 15:47:55 15:51:54 29° 96° (E) 15:55:51 145.935
AUBIESAT-1 01 Jul 15:54:05 15:57:41 29° 103° (ESE) 16:01:29 437.475
UWE-3 01 Jul 15:59:22 16:03:58 63° 101° (E) 16:08:36 435.000/436.395/437.385
RS-15 01 Jul 15:59:40 16:07:17 21° 98° (E) 16:15:05 29.354- 29.394
BEESAT 3 01 Jul 16:00:29 16:02:49 15° 45° (NE) 16:05:08 437.485
SEEDS 01 Jul 16:03:12 16:07:06 36° 288° (WNW) 16:10:56 437.485
CUTE 1.7 + AOD 2 01 Jul 16:05:02 16:08:34 25° 291° (WNW) 16:12:05 437.475
HUMSAT D 01 Jul 16:20:12 16:22:36 15° 92° (E) 16:25:00 437.325/437.525
DELFI C3 01 Jul 16:20:21 16:23:53 30° 97° (E) 16:27:22 145.870
HO-68 01 Jul 16:23:28 16:30:02 39° 295° (WNW) 16:36:34 435.675
TIGRISAT 01 Jul 16:23:43 16:27:54 52° 73° (ENE) 16:32:11 435.000
QB50P2 01 Jul 16:28:56 16:29:34 10° 63° (ENE) 16:30:12 145.880/145.840
UNISAT 6 01 Jul 16:29:47 16:34:03 65° 75° (ENE) 16:38:27 437.425
POLYITAN 1 01 Jul 16:31:20 16:32:12 11° 63° (ENE) 16:33:02 437.675
AAUSAT CUBESAT 2 01 Jul 16:33:54 16:37:30 29° 290° (WNW) 16:41:04 437.432
M-CUBED/EXP-1 PRIME 01 Jul 16:35:43 16:39:43 73° 288° (WNW) 16:44:01 437.505
BEESAT 2 01 Jul 16:43:46 16:46:56 22° 49° (NE) 16:50:05 435.950
ISS 01 Jul 16:48:44 16:49:28 11° 352° (N) 16:50:12 145.825
PHONESAT 2.4 01 Jul 16:53:35 16:56:21 31° 205° (SSW) 16:59:07 2401.200-2431.200
CUBEBUG 2 01 Jul 16:55:27 16:59:11 24° 292° (WNW) 17:02:57 437.445
PCSat 01 Jul 16:58:27 17:03:49 57° 58° (ENE) 17:09:08 145.827
Cosmos 2491 01 Jul 17:00:20 17:07:57 32° 71° (ENE) 17:15:29 435.465 / 435.565
ZACube-1 01 Jul 17:08:04 17:12:14 36° 289° (WNW) 17:16:24 437.345
ANTELSAT 01 Jul 17:09:43 17:13:49 44° 261° (W) 17:18:03 437.575/2403.000
BUGSAT 1 01 Jul 17:09:47 17:10:27 10° 63° (ENE) 17:11:08 437.445
Oscar 11 01 Jul 17:12:18 17:16:04 29° 290° (WNW) 17:19:50 145.826/435.025
FUNcube-1 01 Jul 17:24:13 17:28:01 26° 291° (WNW) 17:31:48 145.935
AUBIESAT-1 01 Jul 17:28:49 17:32:01 23° 295° (WNW) 17:35:23 437.475
BEESAT 3 01 Jul 17:36:57 17:40:49 54° 243° (WSW) 17:44:40 437.485
UWE-3 01 Jul 17:37:39 17:39:53 13° 296° (WNW) 17:42:08 435.000/436.395/437.385
NANOSAT C BR1 01 Jul 17:39:12 17:43:17 59° 75° (ENE) 17:47:25 145.865
O/OREOS (USA 219) 01 Jul 17:42:14 17:45:56 25° 60° (ENE) 17:49:37 437.305
QB50P1 01 Jul 17:43:56 17:48:06 71° 75° (ENE) 17:52:18 145.935-145.965
VELOX 1 01 Jul 17:46:25 17:48:32 13° 92° (E) 17:50:38 145.980
POPSAT HIP 1 01 Jul 17:47:27 17:51:37 77° 76° (ENE) 17:55:50 437.405
50 SAT 01 Jul 17:47:48 17:49:30 13° 92° (E) 17:51:09 437.505
HUMSAT D 01 Jul 17:54:19 17:58:27 45° 287° (WNW) 18:02:32 437.325/437.525
DELFI C3 01 Jul 17:55:41 17:58:31 19° 292° (WNW) 18:01:20 145.870
DUCHIFAT 1 01 Jul 17:58:10 18:02:20 88° 261° (W) 18:06:32 145.980
QB50P2 01 Jul 18:00:36 18:04:47 68° 259° (W) 18:08:59 145.880/145.840
TIGRISAT 01 Jul 18:02:59 18:04:55 13° 269° (W) 18:06:53 435.000
JAS-2 01 Jul 18:03:11 18:09:56 38° 68° (ENE) 18:16:08 435.910
POLYITAN 1 01 Jul 18:03:16 18:07:24 67° 258° (WSW) 18:11:37 437.675
RS-15 01 Jul 18:06:28 18:17:51 88° 119° (ESE) 18:29:57 29.354- 29.394
UKube-1 01 Jul 18:10:30 18:12:56 15° 93° (E) 18:15:21 .
BEESAT 2 01 Jul 18:21:14 18:24:49 32° 246° (WSW) 18:28:23 435.950
ISS 01 Jul 18:25:53 18:27:06 12° 12° (NNE) 18:28:20 145.825
AISAT 01 Jul 18:25:59 18:30:06 39° 98° (E) 18:34:14 437.250
ESTCUBE 1 01 Jul 18:34:30 18:39:01 80° 104° (ESE) 18:43:29 437.505/2401.250
DX 1 01 Jul 18:35:02 18:39:01 35° 98° (E) 18:42:59 434.975-435.025
YUBILEINY 01 Jul 18:38:38 18:47:05 58° 91° (E) 18:55:36 435.215
BUGSAT 1 01 Jul 18:41:20 18:45:18 61° 259° (WSW) 18:49:17 437.445
PCSat 01 Jul 18:43:04 18:46:43 19° 255° (WSW) 18:50:20 145.827
Gurwin Techsat 1B 01 Jul 18:45:37 18:46:21 10° 58° (ENE) 18:47:06 435.225
